Location: Newark
(21.1200°N, 73.4000°E)
Time: 11:19:57
(UTC+00:00)

Vanguard 1 Rocket - Pass Details

Date: 24 January 2020
Orbit: 650 x 4226 km, 34.3° (Epoch: 25 February)

Event Time Altitude Azimuth Distance (km) Brightness Sun altitude
Rises 13:50:15 0° 286° (WNW) 7,834 13.2 -13.9°
Reaches altitude 10° 13:56:22 10° 277° (W) 7,127 13.0 -15.3°
Maximum altitude 14:16:43 31° 225° (SW) 5,718 11.9 -19.9°
Drops below altitude 10° 14:35:24 10° 170° (S) 6,405 11.7 -24.1°
Sets 14:40:43 0° 160° (SSE) 6,963 11.8 -25.4°
